Regional Weather Roundup
Issued by NWS

Home | Current Version | Previous Version | Graphics & Text | Print | Product List | Glossary On
Versions: 1 2 3 4 5 6 7 8 9 10 11 12 13 14 15 16 17 18 19 20 21 22 23 24 25 26 27 28 29 30 31 32 33 34 35 36 37 38 39 40 41 42 43 44 45 46 47 48 49 50
000
ASUS45 KABQ 251801
RWRNM
NEW MEXICO REGIONAL WEATHER ROUNDUP
NATIONAL WEATHER SERVICE ALBUQUERQUE NM
1100 AM MST SAT FEB 25 2017

NOTE: "FAIR" MEANS FEW OR NO CLOUDS BELOW 12,000 FEET AGL WITH NO
       SIGNIFICANT WEATHER OR OBSTRUCTIONS TO VISION.

      THIS PRODUCT IS RELEASED AS TWO VERSIONS.  ONE VERSION NEAR
      THE TOP OF THE HOUR CONTAINING PRELIMINARY DATA FROM ALBUQUERQUE
      AND OTHER STATIONS.  A FINAL VERSION WITH ADDITIONAL DATA IS
      ISSUED ABOUT 10 MINUTES AFTER THE HOUR.

NMZ501-503-504-510>518-251900-
NORTHWEST PLATEAU/NORTHCENTRAL MOUNTAINS

CITY           SKY/WX    TMP DP  RH WIND       PRES   REMARKS
FARMINGTON     FAIR      34   6  31 VRB3      30.06F
6HR MIN TEMP:  13; 6HR MAX TEMP:  34;

LOS ALAMOS     FAIR      32   1  27 SE6       30.01F WCI  27
SANTA FE       FAIR      37   1  22 W16G22    30.02F WCI  28
6HR MIN TEMP:   9; 6HR MAX TEMP:  38;

TAOS           FAIR      34   3  27 W16G22    29.98F WCI  23
ANGEL FIRE     FAIR      24   4  44 W12G20    29.95F WCI  12

$$
NMZ402-403-502-505>509-251900-
WESTCENTRAL MOUNTAINS/SOUTHWEST MOUNTAINS

CITY           SKY/WX    TMP DP  RH WIND       PRES   REMARKS
GALLUP         FAIR      37  11  34 SW14G20   30.05S WCI  28
6HR MIN TEMP:   9; 6HR MAX TEMP:  38;

GRANTS         FAIR      38   7  27 E5        30.04F WCI  35
SILVER CITY    FAIR      50   7  17 W18       30.08F

$$
NMZ407-409-411-412-251900-
SOUTHERN DESERTS

CITY           SKY/WX    TMP DP  RH WIND       PRES   REMARKS
DEMING         FAIR      53  10  18 SW13      30.09F
6HR MIN TEMP:  28; 6HR MAX TEMP:  53;

LAS CRUCES     FAIR      53   6  15 SW10      30.09F
HOLLOMAN AFB   FAIR      52   9  17 S9        30.10F
ALAMOGORDO     FAIR      54   9  16 S13G21    30.08F
T OR C         FAIR      48   8  19 VRB3      30.05F
6HR MIN TEMP:  30; 6HR MAX TEMP:  48;


$$
NMZ519>523-251900-
CENTRAL VALLEYS/CENTRAL HIGHLANDS

CITY           SKY/WX    TMP DP  RH WIND       PRES   REMARKS
ALBUQUERQUE    FAIR      40   3  21 W8        30.07F WCI  34
6HR MIN TEMP:  24; 6HR MAX TEMP:  40;

DOUBLE EAGLE   SUNNY     37   7  28 SW6       30.06  WCI  33
MORIARTY ARPT  FAIR      43   7  22 W8G20     30.04F
6HR MIN TEMP:   5; 6HR MAX TEMP:  44;

CLINES CORNERS FAIR      38   5  25 W16       30.01F WCI  29
6HR MIN TEMP:  15; 6HR MAX TEMP:  38;

BELEN          FAIR      41   6  24 CALM      30.07F
6HR MIN TEMP:  19; 6HR MAX TEMP:  41;

SOCORRO        FAIR      45   9  23 SE5       30.06F
6HR MIN TEMP:  26; 6HR MAX TEMP:  45;


$$
NMZ524>526-539-540-251900-
SOUTHCENTRAL MOUNTAINS

CITY           SKY/WX    TMP DP  RH WIND       PRES   REMARKS
RUIDOSO        NOT AVBL

$$
NMZ527>531-251900-
NORTHEAST HIGHLANDS/NORTHEAST PLAINS

CITY           SKY/WX    TMP DP  RH WIND       PRES   REMARKS
LAS VEGAS      FAIR      39   5  24 VRB3      29.94F
6HR MIN TEMP:   8; 6HR MAX TEMP:  39;

RATON          FAIR      32   9  38 S8        29.92F WCI  25
6HR MIN TEMP:   7; 6HR MAX TEMP:  32;

CLAYTON        FAIR      39  18  42 SW18G25   29.99F WCI  30
6HR MIN TEMP:  13; 6HR MAX TEMP:  39; 6HR PCP: TRACE;


$$
NMZ532>537-251900-
EASTCENTRAL PLAINS

CITY           SKY/WX    TMP DP  RH WIND       PRES   REMARKS
TUCUMCARI      FAIR      46  16  30 SW14G24   30.04F
6HR MIN TEMP:  15; 6HR MAX TEMP:  46;

CANNON AFB     NOT AVBL
CLOVIS AIRPORT FAIR      41  18  38 S15G23    30.09F

$$
NMZ028-029-538-251900-
SOUTHEAST PLAINS

CITY           SKY/WX    TMP DP  RH WIND       PRES   REMARKS
ROSWELL        FAIR      46  18  32 S14         N/A
6HR MIN TEMP:  23; 6HR MAX TEMP:  46;

ARTESIA        FAIR      45  21  39 SE13G20   30.10F
CARLSBAD       FAIR      46  23  40 SE14      30.11F
6HR MIN TEMP:  30; 6HR MAX TEMP:  47;

HOBBS          SUNNY     45  19  36 SE13      30.14F


$$




USA.gov is the U.S. government's official web portal to all federal, state and local government web resources and services.